AirNav   Everest Fuels
 
 796 users online  

N98 Boyne City Municipal Airport
Boyne City, Michigan, USA

GOING TO BOYNE CITY?


FAA INFORMATION EFFECTIVE 28 FEBRUARY 2019

Location

FAA Identifier: N98
Lat/Long: 45-12-31.7284N / 084-59-23.5880W
45-12.528807N / 084-59.393133W
45.2088134 / -84.9898856
(estimated)
Elevation: 659.6 ft. / 201.0 m (surveyed)
Variation: 05W (1985)
From city: 1 mile SE of BOYNE CITY, MI
Time zone: UTC -5 (UTC -4 during Daylight Saving Time)
Zip code: 49712

Airport Operations

Airport use: Open to the public
Activation date: 10/1947
Control tower: no
ARTCC: MINNEAPOLIS CENTER
FSS: LANSING FLIGHT SERVICE STATION
NOTAMs facility: LAN (NOTAM-D service available)
Attendance: UNATNDD
Pattern altitude: 1659.6 ft. MSL
Wind indicator: lighted
Segmented circle: yes
Lights: ACTVT MIRL RY 09/27, PAPI RY 09, REIL RY 27 - 122.900

Airport Communications

CTAF/UNICOM: 122.8
WX AWOS-3 at CVX (13 nm NW): 120.0 (231-237-9703)
WX AWOS-3 at MGN (13 nm N): 119.925 (231-347-5231)
WX AWOS-3 at ACB (16 nm SW): 119.275 (231-533-8941)
WX ASOS at GLR (17 nm SE): 118.375 (989-732-1571)

Nearby radio navigation aids

VOR radial/distance  VOR name  Freq  Var
GLRr320/16.9GAYLORD VOR/DME109.2006W
PLNr214/28.8PELLSTON VORTAC111.8006W
CGGr347/(33.5)GRAYLING VOR109.8006W

 
NDB name  Hdg/Dist  Freq  Var  ID
CHARLEVOIX120/13.139205WCVX -.-. ...- -..-
BANGU333/14.037506WGL --. .-..
GRAYLING352/28.435906WGYG --. -.-- --.

Airport Services

Fuel available: 100LL
SELF-SERVICE FUEL.
Parking: tiedowns
Bottled oxygen: NONE
Bulk oxygen: NONE

Runway Information

Runway 9/27

Dimensions: 4001 x 75 ft. / 1220 x 23 m
Surface: asphalt, in good condition
Runway edge lights: medium intensity
RUNWAY 9  RUNWAY 27
Latitude: 45-12.543998N45-12.513615N
Longitude: 084-59.858375W084-58.927892W
Elevation: 654.7 ft.659.3 ft.
Traffic pattern: leftleft
Displaced threshold: 599 ft.no
Markings: basic, in good conditionbasic, in good condition
Visual slope indicator: 2-light PAPI on left (4.00 degrees glide path)2-light PAPI on left (4.00 degrees glide path)
Runway end identifier lights: yesyes
Touchdown point: yes, no lightsyes, no lights
Obstructions: 19 ft. road, 201 ft. from runway
+6 FT FENCE, 175 FT DSTC; 19 FT RD 197 FT DSTC.
38 ft. pline, 734 ft. from runway, 135 ft. left of centerline, 14:1 slope to clear
+4 FT. FENCE, 0 FT DSTC, 125 FT R.

Airport Ownership and Management from official FAA records

Ownership: Publicly-owned
Owner: CITY OF BOYNE CITY
319 N LAKE
BOYNE CITY, MI 49712
Phone 231-582-6597
Manager: MICHAEL CAIN
319 NORTH LAKE ST., 319 N LAKE
BOYNE CITY, MI 49712
Phone 231-582-6597

Airport Operational Statistics

Aircraft based on the field: 15
Single engine airplanes: 12
Multi engine airplanes: 1
Helicopters: 2
    
Aircraft operations: avg 25/day *
71% transient general aviation
29% local general aviation
* for 12-month period ending 31 December 2017

Additional Remarks

RWY 27 +250 FT HILL 2 MILES E 16:1; +20 FT TREES, 480 FT DSTC, 145 R, 14:1.
DEER & BIRDS ON & INVOF RYS.
+ 4 FT FENCE PARALLEL TO RUNWAY, 123 FT S OF RWY CL;.
ADMIN BLDG ACES: 5, THEN 3-2 SIMUL, THEN 1.

Instrument Procedures

NOTE: All procedures below are presented as PDF files. If you need a reader for these files, you should download the free Adobe Reader.

NOT FOR NAVIGATION. Please procure official charts for flight.
FAA instrument procedures published for use from 28 February 2019 at 0901Z to 28 March 2019 at 0900Z.

 
IAPs - Instrument Approach Procedures
RNAV (GPS) RWY 09 **CHANGED**   download (225KB)
RNAV (GPS) RWY 27 **CHANGED**   download (188KB)
NOTE: Special Take-Off Minimums/Departure Procedures apply   download (122KB)

Other nearby airports with instrument procedures:

KBFA - Boyne Mountain Airport (4 nm SE)
KCVX - Charlevoix Municipal Airport (13 nm NW)
KMGN - Harbor Springs Airport (13 nm N)
KACB - Antrim County Airport (16 nm SW)
KGLR - Gaylord Regional Airport (17 nm SE)
 
Loc | Ops | Rwys | IFR | FBO | Links
Com | Nav | Svcs | Stats | Notes
Area around N98 (Boyne City Municipal Airport)
 
Road maps at: MapQuest Bing Google
 
Aerial photo
WARNING: Photo may not be current or correct
Aerial photo of N98 (Boyne City Municipal Airport)
Do you have a better or more recent aerial photo of Boyne City Municipal Airport that you would like to share? If so, please send us your photo.

 
Sectional chart

 
Airport distance calculator
Flying to Boyne City Municipal Airport? Find the distance to fly.

From to N98

Sunrise and sunset
Times for 23-Mar-2019
 Local
(UTC-4)
 Zulu
(UTC)
Morning civil twilight07:0911:09
Sunrise07:3811:38
Sunset19:5523:55
Evening civil twilight20:2400:24

Current date and time
Zulu (UTC)  23-Mar-2019 22:44:16
Local (UTC-4)  23-Mar-2019 18:44:16
 
METAR
KCVX 
13nm NW 
232236Z AUTO 22009G15KT 10SM CLR 06/M06 A3018 RMK AO2 T00551059
KMGN 
14nm N 
232236Z AUTO 26007KT 10SM CLR 03/M05 A3014 RMK AO2 T00351048
KACB 
16nm SW 
232236Z AUTO 22005KT 10SM CLR 07/M07 A3017 RMK AO2 T00651075
KGLR 
17nm SE 
232153Z AUTO 27007KT 10SM CLR 04/M08 A3013 RMK AO2 SLP219 T00441083
KPLN 
23nm N 
232154Z AUTO 24008KT 10SM CLR 04/M06 A3014 RMK AO2 SLP217 T00441061
TAF
KPLN 
23nm N 
231720Z 2318/2418 25010KT P6SM SKC FM240400 24010G16KT P6SM SKC WS020/27040KT FM241100 27008KT P6SM SCT200 FM241400 33005KT P6SM BKN035 FM241600 01005KT P6SM BKN015
NOTAMs
Click for the latest NOTAMs
NOTAMs are issued by the DoD/FAA and will open in a separate window not controlled by AirNav.

 

 
 

FBO, Fuel Providers, and Aircraft Ground Support

  
 Business Name 
 
 Contact 
 
 Services / Description 
 
Fuel Prices
 
Comments
  
Boyne City Municipal Airport 231-582-6597
no information available

If you are affiliated with Boyne City Municipal Airport and would like to show here your services, contact info, web link, logo, and more, click here
100LL
SS $4.31 
 Updated 14-Mar-2019
 
   3 read write
SS=Self service
Update Fuel Prices
 

Would you like to see your business listed on this page?

 If your business provides an interesting product or service to pilots, flight crews, aircraft, or users of the Boyne City Municipal Airport, you should consider listing it here.  To start the listing process, click on the button below
 
Add a business
 

Other Pages about Boyne City Municipal Airport

Page from the Michigan Airport Directory (PDF)
 
Update a link
 
Copyright © AirNav, LLC. All rights reserved. Privacy Policy  Contact